Location: Muck Cross
(36.7179°N, 78.3678°W)
Time: 12:26:12
(UTC+00:00)

Transit 4A - All Passes

Search period start: 30 March 2023 00:00
Search period end: 09 April 2023 00:00
Orbit: 868 x 976 km, 66.8° (Epoch: 29 March)

Date Brightness Start Highest point End Pass type
(mag) Time Alt. Az. Time Alt. Az. Time Alt. Az.
30 Mar - 10:00:45 10° SSW 10:06:32 78° ESE 10:12:25 10° NNE visible
30 Mar - 11:49:48 10° W 11:53:32 17° NW 11:57:20 10° N daylight
30 Mar - 17:23:19 10° NNE 17:23:56 10° NE 17:24:33 10° NE daylight
30 Mar - 19:05:35 10° NNW 19:11:39 55° ENE 19:17:49 10° SE daylight
30 Mar - 20:52:54 10° WNW 20:57:34 22° WSW 21:02:17 10° SSW daylight
31 Mar - 08:27:02 10° SE 08:30:06 15° ESE 08:33:11 10° ENE visible
31 Mar - 10:09:56 10° SW 10:15:42 70° WNW 10:21:36 10° NNE visible
31 Mar - 12:01:01 10° WNW 12:03:10 12° NW 12:05:19 10° NNW daylight
31 Mar - 17:30:15 10° N 17:33:37 15° NE 17:36:59 10° ENE daylight
31 Mar - 19:14:39 10° NNW 19:20:53 81° ENE 19:27:14 10° SSE daylight
31 Mar - 21:03:23 10° WNW 21:06:29 14° WSW 21:09:35 10° SW daylight
01 Apr - 08:34:31 10° SSE 08:39:00 24° ESE 08:43:33 10° NE visible
01 Apr - 10:19:24 10° SW 10:24:57 46° WNW 10:30:38 10° NNE visible
01 Apr - 17:38:37 10° N 17:43:11 21° NE 17:47:48 10° E daylight
01 Apr - 19:23:52 10° NNW 19:30:03 69° WSW 19:36:20 10° SSE daylight
02 Apr - 08:42:43 10° S 08:47:59 37° ESE 08:53:20 10° NE visible
02 Apr - 10:29:11 10° WSW 10:34:18 31° NW 10:39:32 10° N visible
02 Apr - 17:47:18 10° N 17:52:39 30° NE 17:58:04 10° ESE daylight
02 Apr - 19:33:15 10° NW 19:39:08 45° WSW 19:45:08 10° S daylight
03 Apr - 08:51:22 10° S 08:57:01 58° ESE 09:02:48 10° NE visible
03 Apr - 10:39:20 10° W 10:43:45 22° NW 10:48:15 10° N daylight
03 Apr - 17:56:10 10° NNW 18:02:02 42° ENE 18:08:00 10° SE daylight
03 Apr - 19:42:52 10° NW 19:48:10 30° WSW 19:53:32 10° SSW daylight
04 Apr - 07:20:19 10° ESE 07:20:46 10° E 07:21:13 10° E visible
04 Apr - 09:00:20 10° SSW 09:06:08 89° SE 09:12:04 10° NNE visible
04 Apr - 10:49:58 10° W 10:53:18 15° NW 10:56:41 10° N daylight
04 Apr - 16:21:41 10° NNE 16:23:44 12° NE 16:25:49 10° ENE daylight
04 Apr - 18:05:09 10° NNW 18:11:19 63° ENE 18:17:35 10° SE daylight
04 Apr - 19:52:52 10° WNW 19:57:08 19° WSW 20:01:27 10° SSW daylight
05 Apr - 07:25:58 10° SE 07:29:38 17° ESE 07:33:20 10° ENE visible
05 Apr - 09:09:37 10° SW 09:15:20 61° WNW 09:21:12 10° NNE visible
05 Apr - 11:01:50 10° NW 11:02:57 10° NW 11:04:06 10° NNW daylight
05 Apr - 16:29:33 10° N 16:33:24 17° NE 16:37:17 10° E daylight
05 Apr - 18:14:16 10° NNW 18:20:32 89° WSW 18:26:53 10° SSE daylight
05 Apr - 20:03:52 10° W 20:06:01 12° WSW 20:08:11 10° WSW daylight
06 Apr - 07:33:45 10° SSE 07:38:33 28° ESE 07:43:25 10° NE visible
06 Apr - 09:19:11 10° SW 09:24:38 40° NW 09:30:12 10° NNE visible
06 Apr - 16:38:03 10° N 16:42:56 24° NE 16:47:52 10° ESE daylight
06 Apr - 18:23:33 10° NW 18:29:40 60° WSW 18:35:53 10° S daylight
07 Apr - 07:42:07 10° S 07:47:33 43° ESE 07:53:04 10° NE visible
07 Apr - 09:29:05 10° WSW 09:34:00 28° NW 09:39:02 10° N visible
07 Apr - 16:46:48 10° N 16:52:22 33° NE 16:58:00 10° ESE daylight
07 Apr - 18:33:00 10° NW 18:38:44 40° WSW 18:44:34 10° S daylight
08 Apr - 07:50:52 10° SSW 07:56:37 67° ESE 08:02:28 10° NNE visible
08 Apr - 09:39:22 10° W 09:43:29 19° NW 09:47:41 10° N visible
08 Apr - 16:55:43 10° NNW 17:01:43 48° ENE 17:07:49 10° SE daylight
08 Apr - 18:42:42 10° NW 18:47:45 26° WSW 18:52:51 10° SSW daylight
